Regional Weather Roundup
Issued by NWS

Home | Current Version | Previous Version | Text Only | Print | Product List | Glossary On
Versions: 1 2 3 4 5 6 7 8 9 10 11 12 13 14 15 16 17 18 19 20 21 22 23 24 25 26 27
000
ASUS44 KLIX 292111
RWRLA
LOUISIANA WEATHER ROUNDUP
NATIONAL WEATHER SERVICE NEW ORLEANS LA
400 PM CDT SUN MAY 29 2016

NOTE: "FAIR" INDICATES FEW OR NO CLOUDS BELOW 12,000 FEET WITH NO
      SIGNIFICANT WEATHER AND/OR OBSTRUCTIONS TO VISIBILITY.
      SKY/WX - SKY CONDITION AND SIGNIFICANT WEATHER.
      TMP - AIR TEMPERATURE.    DP   - DEWPOINT TEMPERATURE.
      RH  - RELATIVE HUMIDITY.  PRES - PRESSURE.
      HX  - HEAT INDEX.         WCI  - WIND CHILL INDEX.

*  THESE STATIONS ARE NOT NWS OR FAA STATIONS AND ARE NOT UNDER
   NWS QUALITY CONTROL.

LAZ040-048-061>063-065-066-069-292200-
SOUTHEAST LOUISIANA

CITY           SKY/WX    TMP DP  RH WIND       PRES   REMARKS
N.O. AUDUBON     N/A     93  62  36 MISG        N/A
N.O. INTL ARPT PTSUNNY   89  66  46 N9        30.07F
N.O. LAKEFRONT MOSUNNY   88  65  46 N5        30.07F
N.O. DOWNTOWN* FAIR      88  60  38 VRB6      30.07F
RESERVE*       FAIR      90  65  42 E8        30.07F
SLIDELL        MOSUNNY   86  70  58 CALM      30.05F
BATON ROUGE    MOSUNNY   89  66  46 NE6       30.06F
BOOTHVILLE     SUNNY     83  72  69 NE6       30.08F
BELLE CHASSE   PTSUNNY   86  66  51 SE5       30.06F
BOGALUSA*      FAIR      91  62  38 NE5       30.08F
GALLIANO*      MOCLDY    86  69  57 S6        30.07F
NEW ROADS*     FAIR      87  69  55 N5        30.07F
GONZALES*      FAIR      88  67  49 CALM      30.05F
HAMMOND*       MOSUNNY   88  59  37 E3        30.06F
HOUMA*         PTSUNNY   82  73  74 S7        30.07S
PORT FOURCHON* CLEAR     82  70  65 SE8       30.07F

$$

LAZ041-044-053-054-292200-
SOUTHWEST LOUISIANA

CITY           SKY/WX    TMP DP  RH WIND       PRES   REMARKS
LAKE CHARLES   PTSUNNY   88  67  49 NE8       30.06F
LAFAYETTE      MOSUNNY   88  68  51 E3        30.06F
PATTERSON      MOSUNNY   88  70  55 NE10      30.06F
SALT POINT       N/A     86  74  67 MISG      30.05
NEW IBERIA     SUNNY     89  65  44 E3        30.07F
CHENAULT AIRPK MOSUNNY  N/A N/A N/A NE8         N/A

$$

LAZ027-028-292200-
CENTRAL LOUISIANA

CITY           SKY/WX    TMP DP  RH WIND       PRES   REMARKS
FORT POLK      CLOUDY    88  66  47 NE7       30.06F
ALEXANDRIA INT CLOUDY    89  64  43 NE5       30.05F
ALEXANDRIA     CLOUDY    93  66  40 NE3       30.07F HX  96

$$

LAZ001-002-292200-
NORTHWEST LOUISIANA

CITY           SKY/WX    TMP DP  RH WIND       PRES   REMARKS
SHREVEPORT     PTSUNNY   92  68  45 E7        30.04F HX  96
BARKSDALE AFB  MOSUNNY   92  68  45 VRB6      30.04F HX  95
DTN SHREVEPORT SUNNY     90  68  48 E7        30.04F

$$

LAZ014-016-292200-
NORTHEAST LOUISIANA

CITY           SKY/WX    TMP DP  RH WIND       PRES   REMARKS
MONROE         MOSUNNY   90  69  50 VRB3      30.07F
TALLULAH       MOSUNNY   90  66  45 CALM      30.07F

$$





USA.gov is the U.S. government's official web portal to all federal, state and local government web resources and services.